Regional Weather Roundup
Issued by NWS Wakefield, VA

Home | Current Version | Previous Version | Text Only | Print | Product List | Glossary Off
Versions: 1 2 3 4 5 6 7 8 9 10 11 12 13 14 15 16 17 18 19 20 21 22 23 24 25 26 27 28 29 30 31 32 33 34 35 36 37 38 39 40 41 42 43 44 45 46 47 48 49 50

579
ASUS41 KAKQ 232215
RWRAKQ

REGIONAL WEATHER ROUNDUP
NATIONAL WEATHER SERVICE WAKEFIELD VA
600 PM EDT MON APR 23 2018

Note: "fair" indicates few or no clouds below 12,000 feet with no
significant weather and/or obstructions to visibility. * = Denotes
station may not report precipitation (e.g., rain,snow,etc.),
thunder or fog.

VAZ042-051-052>054-056-232300-
NORTHERN VIRGINIA

CITY           SKY/WX    TMP DP  RH WIND       PRES   REMARKS
WASH NATIONAL  PTSUNNY   65  42  43 SE16G22   30.36R
DULLES         CLOUDY    66  43  43 S10G23    30.34R
FORT BELVOIR   NOT AVBL
QUANTICO       PTSUNNY   62  44  51 SE20      30.37R
FREDERICKSBRG* FAIR      65  44  46 E12G17    30.34R
STAFFORD*      FAIR      65  44  47 SE9G20    30.38S
WARRENTON      FAIR      65  39  37 E10G17    30.33S
CULPEPER*      FAIR      66  42  41 E3        30.33S
MANASSAS*      PTSUNNY   64  43  46 SE18      30.35R
LEESBURG*      CLOUDY    68  45  42 SE14      30.34S
WINCHESTER     PTSUNNY   63  43  48 SE14G20   30.33R
FRONT ROYAL*   FAIR      63  45  51 SE10G21   30.30S
LURAY*         CLOUDY    64  43  45 SE9G16    30.30F
$$

VAZ048-049-060>072-079>083-232300-
CENTRAL AND SOUTH CENTRAL VIRGINIA

CITY           SKY/WX    TMP DP  RH WIND       PRES   REMARKS
RICHMOND       CLOUDY    63  37  38 E15G24    30.34R
CHESTERFIELD*  FAIR      64  42  44 E10G23    30.33R
PETERSBURG*    CLOUDY    65  43  45 E14G20    30.33R
HANOVER        FAIR      64  38  38 VRB7G18   30.36R
TAPPAHANNOCK*  FAIR      63  32  32 E13G18    30.38S
QUINTON*       FAIR      62  35  36 E20G29    30.36R
CHARLOTTSVILLE CLOUDY    68  43  40 SE14G20   30.29S
GORDONSVILLE*  MOCLDY    66  45  46 SE7       30.30S
ORANGE*        CLOUDY    64  41  42 SE8G16    30.31F
LOUISA*        CLOUDY    65  43  45 E10       30.35F
BUMPASS*       FAIR      64  40  41 E9G16     30.33S
FARMVILLE*     CLOUDY    67  44  42 E8        30.27F
CREWE*         CLOUDY    65  48  52 E10       30.29S
FORT PICKETT*  CLOUDY    65  47  52 E16G22    30.29F
CHASE CITY*    FAIR      65  47  52 SE8G18    30.25F
CLARKSVILLE*   CLOUDY    63  50  63 E12G17    30.24F
SOUTH HILL*    PTSUNNY   64  50  60 E6G16     30.32F
LAWRENCEVILLE* FAIR      64  46  51 E7G20     30.29F
EMPORIA*       PTSUNNY   64  46  52 E16G23    30.32F
$$

VAZ088>098-232300-
SOUTHEAST VIRGINIA

CITY           SKY/WX    TMP DP  RH WIND       PRES   REMARKS
NORFOLK        FAIR      63  40  42 E9        30.36F
VIRGINIA BEACH PTSUNNY   59  43  55 E20       30.36S
NORFOLK NAVAL  PTSUNNY   63  38  39 SE13G24   30.38S
WEST POINT*    FAIR      63  32  32 E14       30.39S
SALUDA*        FAIR      59  38  46 SE9G17    30.39S
NEWPORT NEWS   FAIR      61  41  47 E13G23    30.37S
LANGLEY AFB    NOT AVBL
FORT EUSTIS    NOT AVBL
WILLIAMSBURG*  FAIR      64  36  34 E14G20    30.37S
HR EXEC AP*    FAIR      64  40  41 E18G24    30.37R
FRANKLIN*      FAIR      64  42  44 SE10G20   30.34S
US460-WAKEFLD  FAIR      65  43  44 E12G17    30.34S
$$

VAZ020-022-025-037-045-232300-
WEST CENTRAL AND SOUTHWEST VIRGINIA

CITY           SKY/WX    TMP DP  RH WIND       PRES   REMARKS
STAUNTON*      CLOUDY    62  44  52 SE5       30.31F
WAYNESBORO*    MOCLDY    62  44  52 SE7       30.28F
HOT SPRINGS VA RAIN      48  40  73 E8G16     30.28S
LYNCHBURG      CLOUDY    63  44  50 E12       30.26F
DANVILLE       FAIR      60  55  83 VRB6      30.23S
SOUTH BOSTON*  CLOUDY    64  47  53 E8G17     30.24S
MARTINSVILLE   RAIN      56  52  88 NE3       30.27R
ROANOKE        LGT RAIN  58  49  72 E7        30.27S
BLACKSBURG     RAIN      52  48  86 E7        30.29R
DUBLIN*        RAIN      52  49  90 SE5       30.27R
MARION*        LGT RAIN  51  49  95 E15G21    30.23R
HILLSVILLE*    RAIN      48  46  91 E15G22    30.22S
RICHLANDS*     RAIN      50  20  31 SE16G23   30.15F
WISE*          FAIR      59  46  63 SE10G23   30.09F
ABINGDON*      CLOUDY    58  47  68 E17G25    30.11F
$$

MDZ021>025-VAZ099-100-232300-
SOUTHERN MARYLAND AND THE DELMARVA PENINSULA

CITY           SKY/WX    TMP DP  RH WIND       PRES   REMARKS
PATUXENT RIVER PTSUNNY   61  38  42 SE12      30.39R
BAY BRIDGE APT FAIR      63  43  48 SW13G20   30.37R
LEONARDTOWN    FAIR      61  28  29 SE12      30.41R
DOVER          NOT AVBL
GEORGETOWN     FAIR      63  22  20 SE14G22   30.41S
EASTON         PTSUNNY   66  30  26 SE15G22   30.41R
CAMBRIDGE      SUNNY     63  30  29 SE13G20   30.39R
SALISBURY      FAIR      60  23  24 SE13      30.41R
TANGIER        FAIR      61  43  51 SE9       30.40R
OCEAN CITY     FAIR      53  43  68 SE6       30.42F
WALLOPS ISLAND FAIR      59  37  44 SE14      30.41S
ACCOMACK*      FAIR      60  40  47 SE7       30.40S
$$

NCZ012>017-030>032-232300-
NORTH CENTRAL AND EASTERN NORTH CAROLINA

CITY           SKY/WX    TMP DP  RH WIND       PRES   REMARKS
ROANOKE RAPIDS MOCLDY    64  50  59 E6G16     30.29F
RALEIGH        PTSUNNY   64  52  64 E17G33    30.20F
ELIZABETH CITY FAIR      63  47  55 E15G26    30.35F
AHOSKIE*       PTSUNNY   63  46  54 E9G18     30.32S
EDENTON*       PTSUNNY   65  50  58 E13G20    30.34R
CURRITUCK*     NOT AVBL
KILL DEVIL HLS FAIR      57  48  72 E6        30.35S
MANTEO         FAIR      61  46  58 E14G20    30.35F
CAPE HATTERAS  FAIR      64  51  62 E14       30.32F
TARBORO*       NOT AVBL
GOLDSBORO      FAIR      65  51  60 E23       30.20F
WASHINGTON     PTSUNNY   65  50  57 E15G22    30.30S
GREENVILLE     FAIR      66  52  59 E14G22    30.28F
NEW BERN       PTSUNNY   65  51  60 E10G22    30.27F
WILMINGTON     CLOUDY    63  55  75 E17G24    30.20F
$$

VAZ048-232300-
ELSEWHERE

CITY           SKY/WX    TMP DP  RH WIND       PRES   REMARKS
HARRISBURG PA  PTSUNNY   65  38  36 SE15      30.32F
BALTIMORE      PTSUNNY   65  42  43 S10G21    30.36R
ANNAPOLIS      FAIR      64  42  44 S15G22    30.37R
ANDREWS AFB    NOT AVBL
PHILADELPHIA   PTSUNNY   65  24  21 S14G22    30.39S
HENDERSON NC   FAIR      62  46  54 E15G24    30.24F
GREENSBORO     LGT RAIN  57  55  93 NE14      30.18R
ROCKY MOUNT    FAIR      66  49  54 E12G23    30.25F
$$

VAZ100-232300-
MARINE

STATION/POSITION TIME  TEMP    WIND        PRES    WAVE   SWELL
                       AIR SEA DIR/SP/G            HT/PER HT/PER
                 (UTC) (F)     (DEG/KT/KT) (MB)    (FT/S) (FT/S)
BRANDYWINE LGT   2142   52     160/ 14/ 15 1030.3F
CAPE MAY NJ      2148   55 52  160/ 12/ 16 1029.5F
LEWES DE         2148   56 52  150/ 10/ 15 1029.7F
15NM E FENWICK I 2150   51 49  140/  8/ 10 1030.5F   1/ 8   2/ 8
OCEAN-CITY-INLET 2148   53 51  150/  5/  7 1030.5F
WACHAPREAGUE VA  2148   57 60  130/ 12/ 15 1029.7R
GOOSES REEF MD   2200   57     180/ 16/ 17 1029.2
COVE POINT MD    2148   57     190/ 15/ 17 1029.9R
SOLOMONS ISLAND  2148   59 54  140/ 18/ 20 1028.9R
BISHOPS HEAD MD  2148   60 62  140/ 14/ 16 1029.8R
PINEY POINT MD   2142          150/ 12/ 12   N/A
POTOMAC MD       2200   56 55  170/  8/ 10 1030.6    1/ 2
CAMBRIDGE MD     2148   64 59              1029.9R
LEWISETTA VA     2148   61 57  160/ 15/ 21 1029.1R
RAPPAHANNOCK LGT 2148          110/ 17/ 22 1029.9R
STINGRAY PT      2200   56 55  150/ 10/ 12 1030.5    2/ 3
YORK RVR RNG VA  2148   57     130/ 17/ 20 1029.2R
YORKTOWN VA      2148   59 56  120/ 15/ 20 1028.2S
DOMINION TERM VA 2148   62     110/ 10/ 14 1028.5R
KIPTOPEKE VA     2148      54  120/ 14/ 21   N/A
CAPE HENRY VA    2148   55     100/ 16/ 19   N/A
WILLOUBY STN VA  2148   59     100/ 15/ 17 1028.3R
S CRANEY ISL VA  2148   63     110/ 18/ 22 1028.0R
CAPE HENRY BUOY  2200      52                N/A     3/ 4
1ST LANDING BUOY 2200   55 53  120/ 17/ 19 1028.4    3/ 3
64NM E OF VA BCH 2150   54 51   80/ 10/ 10 1029.6R   3/ 4   2/ 5
DUCK PIER NC     2148   56 54   80/ 18/ 20 1027.7R
44100 DUCK FRF   2145      51                N/A     4/ 5
44056 DUCK FRF   2200      54                N/A     4/ 6
OREGON INLET NC  2142   58 59   70/ 10/ 13 1027.5F
HATTERAS NC      2148   64 62  110/ 10/ 17 1026.3F
DIAMOND SHLS NC  2200   67     100/ 19/ 23 1026.8
$$




USA.gov is the U.S. government's official web portal to all federal, state and local government web resources and services.